Regional Weather Roundup
Issued by NWS

Home | Current Version | Previous Version | Graphics & Text | Print | Product List | Glossary Off
Versions: 1 2 3 4 5 6 7 8 9 10 11 12 13 14 15 16 17 18 19 20 21 22 23 24 25 26 27 28 29 30 31 32 33 34 35 36 37 38 39 40 41 42 43 44 45 46 47 48 49 50

000
ASUS43 KDTX 230710
RWRMI
MICHIGAN HOURLY REGIONAL WEATHER ROUNDUP
NATIONAL WEATHER SERVICE DETROIT/PONTIAC MI
300 AM EDT SUN JUL 23 2017

NOTE: "FAIR" INDICATES FEW OR NO CLOUDS BELOW 12,000 FEET WITH NO
SIGNIFICANT WEATHER AND/OR OBSTRUCTION TO VISIBILITY.

MIZ047>049-052>055-059>063-066>070-074>076-081>083-230800-
SOUTHEAST LOWER MICHIGAN

CITY           SKY/WX    TMP DP  RH WIND       PRES   REMARKS
ADRIAN         PTCLDY    69  66  90 N3        29.80F
ALMA           FOG       63  62  96 NW3       29.81F VSB 1
ANN ARBOR      CLEAR     69  67  93 NW5       29.79F
BAD AXE        CLOUDY    66  65  97 CALM      29.81F
CARO           CLOUDY    66  64  94 CALM      29.79F FOG
DETROIT CITY   CLEAR     72  67  84 NW5       29.77F
DETROIT        MOCLDY    71  67  87 N8        29.79S
FLINT          CLOUDY    68  65  90 NW7       29.81F
GROSSE ILE     CLEAR     72  67  86 N7        29.77S
HILLSDALE      CLOUDY    68  64  88 CALM      29.81F
HOWELL         CLOUDY    69  65  90 NW3       29.81S

CITY           SKY/WX    TMP DP  RH WIND       PRES   REMARKS
JACKSON        CLOUDY    70  66  87 N3        29.81F
LAMBERTVILLE   CLEAR     69  67  96 CALM      29.78S
LANSING        PTCLDY    66  64  93 CALM      29.81S
LAPEER         CLOUDY    67  66  97 CALM      29.80S FOG
MASON          CLOUDY    66  66  98 CALM      29.81S
MONROE         CLEAR     70  69  95 N3        29.78S
MT. CLEMENS    CLOUDY    71  71 100 NW6       29.76F
PONTIAC        CLOUDY    70  67  90 N7        29.78F
PORT HOPE        N/A     70  64  81 E8        29.79F
PORT HURON     CLOUDY    70  68  94 CALM      29.77F
TRI CITIES     MOCLDY    65  65 100 NW6       29.81F FOG
MIDLAND        FAIR      64  63  99 CALM      29.80F FOG
TROY           CLOUDY    71  67  85 NW6       29.80F
SAGINAW HB     CLOUDY    66  64  94 CALM      29.80F
$$
MIZ043>046-050>051-056>058-064>065-071>073-077>080-230800-
SOUTHWEST LOWER MICHIGAN

CITY           SKY/WX    TMP DP  RH WIND       PRES   REMARKS
BATTLE CREEK   CLOUDY    68  68 100 NE6       29.81F
BENTON HARBOR  FOG       68  66  93 CALM      29.80R VSB 1/4
BIG RAPIDS     CLOUDY    68  65  89 E5        29.82R
COLDWATER      PTCLDY    66  66 100 CALM      29.81S FOG
FREMONT        FOG       65  65 100 CALM      29.80S VSB<1/4
HOLLAND        FOG       67  66  97 SE3       29.81S VSB 1/4
GRAND RAPIDS   CLOUDY    70  70 100 E5        29.79F FOG
IONIA          CLOUDY    67  66  98 E5        29.79F
KALAMAZOO      FOG       68  66  93 NE5       29.81S VSB 1/4
LUDINGTON      HVY RAIN  65  65 100 CALM      29.80F
MARSHALL       CLOUDY    69  69  98 CALM      29.80F
MOUNT PLEASANT   N/A     66  63  88 CALM      29.81S FOG
MUSKEGON       FOG       68  67  96 CALM      29.80S VSB 1/4
SOUTH HAVEN    FOG       67  66  99 CALM      29.80R VSB 1/2
$$
MIZ016>042-230800-
NORTHERN LOWER MICHIGAN

CITY           SKY/WX    TMP DP  RH WIND       PRES   REMARKS
ALPENA         CLOUDY    64  64 100 CALM      29.82F FOG
BEAVER ISLAND  CLOUDY    69  65  88 SE6       29.78F
BELLAIRE       LGT RAIN  68  64  86 CALM      29.77F
CADILLAC       LGT RAIN  69  65  86 S3        29.82F
CHARLEVOIX     CLOUDY    68  65  89 E7        29.80F
FRANKFORT      CLOUDY    68  68 100 CALM      29.75F
GAYLORD        CLOUDY    65  60  84 SE6       29.81F
GRAYLING       CLOUDY    63  60  92 E3        29.82F
HARBOR SPRINGS CLOUDY    67  64  89 E3        29.79S
HOUGHTON LAKE  FOG       61  60  97 E5        29.82F VSB 1
MANISTEE       CLOUDY    65  65 100 SE3       29.78F
OSCODA         CLOUDY    65  64  96 CALM      29.80F FOG
PELLSTON       CLOUDY    66  64  93 CALM      29.80F
ROGERS CITY    MOCLDY    65  64  94 E3        29.83S
TRAVERSE CITY  CLOUDY    69  66  90 S8        29.74F
$$
MIZ007>008-015-230800-
EASTERN UPPER MICHIGAN

CITY           SKY/WX    TMP DP  RH WIND       PRES   REMARKS
KINROSS        CLOUDY    66  60  81 E12       29.81F
MACKINAC ISLAN PTCLDY    65  65 100 SE5       29.80F FOG
NEWBERRY       CLOUDY    64  63  97 SE3       29.78S
S. S. MARIE    CLOUDY    65  58  78 E6        29.81F
MUNISING         N/A     67  65  93 CALM      29.75F
$$
MIZ004>006-011>014-085-230800-
CENTRAL UPPER MICHIGAN

CITY           SKY/WX    TMP DP  RH WIND       PRES   REMARKS
MANISTIQUE     CLEAR     65  62  89 E3        29.75F FOG
ESCANABA       FOG       61  61 100 CALM      29.76F VSB 1
MENOMINEE      CLEAR     66  63  90 SW5       29.76F
SAWYER-GWINN   CLOUDY    63  62  97 W6        29.77F
$$
MIZ001>003-009>011-084-230800-
WESTERN UPPER MICHIGAN

CITY           SKY/WX    TMP DP  RH WIND       PRES   REMARKS
IRON MOUNTAIN  FOG       63  61  93 CALM      29.76F VSB 3/4
HOUGHTON       CLOUDY    58  54  86 SE3       29.80S
COPPER HARBOR    N/A     56  53  90 SE8       29.80F
IRONWOOD       FOG       58  58 100 CALM      29.81F VSB 1/4
$$

ABBREVIATIONS USED IN REMARKS
   TC - TEMPERATURE IN CELSIUS
  WCI - WIND CHILL INDEX
   HX - HEAT INDEX
  VSB - VISIBILITY





USA.gov is the U.S. government's official web portal to all federal, state and local government web resources and services.